FALCON 9 R/B, 58699

Orbit data source: Space-Track

FALCON 9 R/B, 58699 is space debris in HEO originally from a launch on Wed, 03 Jan 2024 UTC launched from the Air Force Eastern Test Range (AFETR). Debris objects in space refer to the collection of defunct objects orbiting the Earth. Examples of debris include non-operational satellites, rocket bodies, and fragments generated from explosions, collisions, or faulty payload assembly.

Loading next visibility...
Identifier
58699, 2024-003B
Orbit
HEO
Last TLE update
1 day ago
Origin
Manufacturer
SpaceX
Mission
Spacecraft
Bus & Motor
F9ST2, Unknown motor
Mass
~3,000 kg wet, ~3,000 kg dry
Launch date (UTC)
2024-01-03 (2 years ago)
Launch vehicle
Unknown
Launch site
Air Force Eastern Test Range (AFETR)
Object type
Payload
Rocket body
Debris
Shape & HBR
Cyl, 7.8 m
Radar Cross Section
39.980 m², Large (>1 m²)

Expand to show TLE details & history

TLE from 1 day ago
0 FALCON 9 R/B
1 58699U 24003B   25197.99201073  .00000334  00000-0  52960-3 0  9996
2 58699  25.4221 148.5309 7748775  65.0889 353.5089  1.68490883  9421
Epoch: 2025-07-16T23:48Z
TLE epoch observation values (Epoch: 2025-07-16T23:48:29.727Z)
Latitude
0.00016°
Longitude
-143.80189°
Altitude
2,645.468 km
Speed
8.659 km/s
True Right ascension
09h 53m 32s
True Declination
0° 00' 01"
Sunlit
Object was in daylight at epoch
Visualization orbit readout
Latitude
-18.67605°
Longitude
81.18178°
Altitude
39,235.467 km
Speed
2.029 km/s
Apparent Right ascension
01h 15m 55s
Apparent Declination
-24° 43' 34"
Sunlit
Object is in daylight
Visualization observer readout
Local Sidereal Time
21:17:24
Azimuth
128.144° SE
Elevation
4.807°
Doppler factor
1
Orbital elements
Apogee altitude
46,577.776 km
Perigee altitude
338.703 km
Semi-major axis
29,836.376 km
Eccentricity
0.77488
Inclination
25.4221°
RAAN
148.5309°
Arg. of periapsis
65.0889°
True anomaly
294.41337°
Mean anomaly
353.5089°
Eccentric anomaly
334.15323°
Mean motion
0.42114 °/min
Orbital period
854.83 mins
BSTAR
0.0005296
Loading maneuver chart data...
Loading SW <> Apogee altitude chart data...
Loading historical data...
Loading historical data...
Loading historical data...
Loading historical data...
Loading historical data...
Loading historical data...
Loading historical data...
Other satellites on launch #3 in the year 2024 (2024-01-03 UTC)
|